TimeEDT,TemperatureF,Dew PointF,Humidity,Sea Level PressureIn,VisibilityMPH,Wind Direction,Wind SpeedMPH,Gust SpeedMPH,PrecipitationIn,Events,Conditions,WindDirDegrees,DateUTC
12:15 AM,55.4,51.8,88,29.50,10.0,NW,17.3,25.3,N/A,,Mostly Cloudy,310,2012-10-29 04:15:00
12:35 AM,53.6,51.8,94,29.50,7.0,NW,12.7,21.9,N/A,,Overcast,310,2012-10-29 04:35:00
12:55 AM,53.6,51.8,94,29.49,7.0,NW,15.0,20.7,N/A,,Overcast,310,2012-10-29 04:55:00
1:15 AM,53.6,51.8,94,29.49,5.0,NW,11.5,23.0,N/A,,Overcast,310,2012-10-29 05:15:00
1:35 AM,53.6,51.8,94,29.49,10.0,NW,11.5,19.6,N/A,,Overcast,310,2012-10-29 05:35:00
1:55 AM,53.6,51.8,94,29.48,10.0,NW,18.4,25.3,N/A,,Overcast,320,2012-10-29 05:55:00
2:15 AM,53.6,51.8,94,29.48,5.0,NW,13.8,25.3,N/A,,Light Drizzle,310,2012-10-29 06:15:00
2:35 AM,53.6,51.8,94,29.47,7.0,NW,11.5,23.0,N/A,,Light Drizzle,320,2012-10-29 06:35:00
2:55 AM,53.6,51.8,94,29.46,5.0,NW,15.0,25.3,N/A,,Drizzle,310,2012-10-29 06:55:00
3:15 AM,53.6,51.8,94,29.46,5.0,NW,13.8,19.6,N/A,,Drizzle,310,2012-10-29 07:15:00
3:35 AM,53.6,51.8,94,29.46,5.0,WNW,10.4,17.3,N/A,,Light Drizzle,300,2012-10-29 07:35:00
3:55 AM,53.6,51.8,94,29.47,4.0,WNW,9.2,17.3,N/A,,Light Drizzle,290,2012-10-29 07:55:00
4:15 AM,51.8,50.0,94,29.46,5.0,WNW,11.5,18.4,N/A,,Light Drizzle,300,2012-10-29 08:15:00
4:35 AM,51.8,50.0,94,29.45,7.0,WNW,10.4,24.2,N/A,Rain,Rain,290,2012-10-29 08:35:00
4:55 AM,51.8,50.0,94,29.46,4.0,WNW,11.5,19.6,N/A,,Drizzle,290,2012-10-29 08:55:00
5:15 AM,51.8,50.0,94,29.46,4.0,West,9.2,18.4,N/A,,Drizzle,280,2012-10-29 09:15:00
5:35 AM,51.8,50.0,94,29.47,4.0,WNW,13.8,20.7,0.01,,Heavy Drizzle,300,2012-10-29 09:35:00
5:55 AM,51.8,50.0,94,29.46,5.0,WNW,12.7,-,0.02,Rain,Rain,300,2012-10-29 09:55:00
6:55 AM,50.0,50.0,100,29.46,7.0,NW,12.7,20.7,0.02,Rain,Heavy Rain,310,2012-10-29 10:55:00
7:56 AM,50.0,50.0,100,29.46,7.0,WNW,11.5,18.4,N/A,,Drizzle,290,2012-10-29 11:56:00
8:56 AM,50.0,48.2,94,29.46,5.0,WNW,6.9,17.3,N/A,Rain,Light Rain,290,2012-10-29 12:56:00
9:56 AM,50.0,48.2,94,29.44,7.0,WNW,8.1,18.4,N/A,,Overcast,290,2012-10-29 13:56:00
10:56 AM,48.2,46.4,93,29.44,10.0,West,9.2,18.4,N/A,,Overcast,270,2012-10-29 14:56:00
11:56 AM,50.0,46.4,87,29.43,10.0,West,13.8,26.5,N/A,,Overcast,270,2012-10-29 15:56:00
12:56 PM,51.8,44.6,76,29.42,10.0,WNW,13.8,24.2,N/A,,Mostly Cloudy,290,2012-10-29 16:56:00
1:56 PM,51.8,42.8,71,29.40,10.0,West,13.8,25.3,N/A,,Overcast,280,2012-10-29 17:56:00
2:56 PM,53.6,41.0,62,29.37,10.0,WNW,13.8,24.2,N/A,,Mostly Cloudy,290,2012-10-29 18:56:00
3:56 PM,51.8,39.2,62,29.36,10.0,West,15.0,25.3,N/A,,Mostly Cloudy,280,2012-10-29 19:56:00
4:56 PM,51.8,39.2,62,29.35,10.0,West,10.4,26.5,N/A,,Mostly Cloudy,270,2012-10-29 20:56:00
5:56 PM,50.0,41.0,71,29.35,10.0,WSW,11.5,20.7,N/A,,Mostly Cloudy,250,2012-10-29 21:56:00
6:56 PM,50.0,39.2,66,29.34,10.0,West,15.0,21.9,N/A,,Mostly Cloudy,260,2012-10-29 22:56:00
7:56 PM,48.2,37.4,66,29.34,10.0,WSW,12.7,21.9,N/A,,Overcast,250,2012-10-29 23:56:00
8:56 PM,48.2,37.4,66,29.35,10.0,West,17.3,29.9,N/A,,Overcast,270,2012-10-30 00:56:00
11:35 PM,44.6,37.4,76,29.34,10.0,WSW,13.8,26.5,N/A,Rain,Light Rain,240,2012-10-30 03:35:00
11:55 PM,42.8,37.4,81,29.34,10.0,WSW,13.8,23.0,N/A,,Drizzle,240,2012-10-30 03:55:00